RH
14 16 19 25 24 14 17 17 15 11 11 12 14 16 18 18 15 14 10 9 9 11 21 33 39 41 41 40 40 36 37 36 39 41 34 29 30 28 28 29 27 26 24 23
18 17 20 25 29 27 21 21 19 15 13 14 16 18 20 22 24 18 14 12 12 12 21 29 37 42 49 50 48 46 46 48 50 49 39 34 33 34 32 30 33 32 31 27
22 20 21 25 28 32 32 30 26 24 18 19 19 22 25 28 29 23 17 16 15 16 21 29 35 43 52 61 60 54 55 58 60 55 52 54 53 54 52 45 40 37 34 32
26 25 25 26 31 36 37 38 37 33 29 29 28 30 34 36 34 31 28 18 19 19 25 36 39 38 48 60 63 63 63 65 66 64 70 69 67 59 49 36 38 32 26 26
31 32 32 32 35 39 40 39 41 41 39 40 39 40 46 43 39 40 35 28 23 22 24 34 43 47 48 58 65 70 70 70 73 74 73 70 68 74 51 41 20 14 10 10
37 38 39 38 40 45 47 47 44 45 47 39 40 49 54 49 49 48 49 44 37 30 30 41 53 53 59 66 63 65 74 71 72 70 66 66 59 53 43 33 17 14 13 10
43 45 44 46 47 52 57 55 52 44 45 44 46 45 58 54 56 60 61 55 48 44 38 38 48 48 55 63 65 67 72 70 67 61 62 56 49 44 42 38 40 28 20 18
48 53 52 53 54 57 62 69 72 58 54 43 45 48 57 59 59 66 61 57 57 52 48 45 46 49 46 44 47 54 63 60 62 60 51 48 47 43 37 31 30 24 19 16
54 61 64 63 64 71 65 77 77 79 68 52 43 43 50 57 62 65 64 62 62 67 64 52 55 54 46 42 44 49 52 50 44 45 44 46 34 29 34 34 33 30 27 28
66 61 72 71 75 78 79 81 93 94 86 60 44 40 51 67 60 63 69 74 68 64 67 63 66 59 57 59 62 56 51 51 66 73 75 67 48 53 57 66 68 59 50 54
75 69 72 74 80 78 83 95 98 100 92 92 70 40 67 80 69 67 70 74 76 81 86 84 88 88 84 92 97 94 90 99 96 97 85 85 95 94 97 92 74 83 90 80
88 76 68 75 84 89 88 95 100 99 90 100 94 46 88 80 84 78 75 81 88 88 92 95 97 97 99 99 100 100 99 95 91 88 86 86 87 82 78 76 73 74 84 84
85 79 76 76 82 90 81 89 100 98 86 78 100 74 97 98 91 82 86 85 99 100 100 100 100 100 100 100 100 100 95 90 81 74 70 68 69 77 76 74 76 83 74 54
91 78 94 90 94 95 86 94 100 100 97 98 79 86 83 100 92 97 98 94 92 97 96 98 96 100 100 100 100 100 97 85 83 86 78 74 67 64 72 78 83 86 62 28
97 89 96 87 100 98 86 85 98 98 99 100 92 90 100 96 94 97 98 95 100 93 73 85 99 100 99 100 100 100 86 76 92 86 75 63 54 67 78 85 82 57 22 16
97 97 98 75 100 99 68 77 100 100 95 100 99 83 100 91 100 100 100 98 94 79 72 72 72 85 99 100 95 86 93 100 94 78 66 61 68 82 91 65 35 17 14 14
97 99 99 83 95 84 65 84 87 82 89 100 96 93 74 99 97 95 94 93 84 62 66 78 87 97 94 89 98 100 100 96 77 68 66 74 88 86 69 43 16 15 16 39
97 100 100 93 93 80 81 80 86 90 88 78 47 72 92 93 87 85 66 62 55 63 68 78 91 94 98 100 100 100 97 80 74 71 65 83 91 80 46 17 19 21 54 56
100 100 99 100 99 89 71 84 96 98 47 52 96 100 100 86 42 27 29 31 49 67 64 75 93 100 100 100 100 90 75 70 78 87 83 93 88 75 20 20 36 64 69 67
96 100 100 99 100 100 100 90 92 50 47 71 88 94 85 74 41 17 17 27 58 100 100 100 100 100 100 97 86 81 81 79 76 82 98 79 58 23 18 25 58 72 82 81
83 82 76 69 76 68 83 83 48 74 76 48 42 21 18 20 21 28 38 47 77 100 100 100 100 100 92 94 96 95 92 86 87 100 76 70 33 17 20 51 72 76 85 97
75 88 27 32 79 88 66 72 46 67 82 37 15 16 24 44 62 67 82 100 100 100 100 100 100 92 100 100 95 93 81 86 100 100 91 47 26 20 39 73 81 88 90 97
100 68 40 53 72 51 36 23 24 18 15 17 23 29 58 99 82 88 100 100 100 100 97 95 98 100 99 91 90 84 92 100 100 98 71 30 25 23 48 68 81 89 86 99
40 31 28 38 65 85 60 27 19 24 29 31 41 57 82 88 100 100 100 100 100 100 100 100 100 98 88 86 90 96 98 99 97 95 63 40 25 23 36 52 69 82 84 95
41 37 16 25 48 56 27 20 40 51 64 73 69 80 100 100 100 100 100 100 100 100 100 100 97 94 92 92 91 90 87 92 92 71 59 51 26 25 31 54 85 90 85 93
24 16 12 12 13 16 23 33 46 53 61 74 86 99 100 100 100 100 100 100 100 100 96 96 99 96 96 92 92 81 82 82 69 42 34 31 31 30 40 86 97 100 97 98
Wind_Speed
19 20 20 22 21 20 21 22 21 22 18 17 18 23 24 24 21 23 23 24 25 26 27 30 32 35 35 34 33 32 31 29 28 29 28 27 25 26 26 22 21 23 26 27
21 21 22 22 23 24 24 24 23 22 23 22 22 27 27 26 27 23 23 26 27 28 28 29 32 35 39 37 34 33 33 33 31 31 30 29 30 29 28 28 29 28 29 31
23 23 24 24 25 26 30 29 28 27 21 23 27 22 28 29 32 24 26 27 30 32 31 33 34 37 39 39 38 37 38 36 33 33 33 35 36 36 35 32 32 33 34 33
25 26 26 27 28 28 30 30 31 30 27 26 29 27 26 32 35 31 31 30 32 36 36 35 34 36 39 39 37 37 37 37 36 35 35 35 34 35 33 34 32 32 34 37
27 29 29 30 30 32 32 33 33 33 33 32 31 32 29 32 34 38 34 33 36 39 41 40 35 37 41 40 40 41 39 38 38 38 37 37 36 37 38 36 34 30 32 34
29 30 32 32 34 35 35 35 36 35 37 36 37 39 35 34 37 38 39 39 40 41 43 43 38 39 39 37 40 41 40 39 42 41 41 40 42 39 38 37 37 40 38 38
31 32 33 33 35 35 35 37 39 41 40 40 41 44 42 39 38 39 41 42 43 44 46 46 41 40 42 40 40 40 41 40 43 44 42 42 42 41 41 44 43 43 43 46
34 32 33 34 36 38 37 37 38 41 43 43 44 48 45 41 36 41 44 43 45 46 43 44 42 40 44 45 46 47 46 45 46 44 45 44 45 46 47 48 50 50 51 51
38 37 34 35 37 37 39 40 42 42 45 47 49 51 45 40 41 43 42 41 42 45 46 45 44 43 45 50 49 49 50 47 47 49 49 49 50 51 53 54 56 57 59 59
40 42 35 35 36 37 40 41 45 45 48 50 49 51 44 43 45 43 43 46 49 51 48 46 44 46 47 48 51 51 51 51 52 53 55 56 56 55 58 60 62 62 61 58
42 44 39 37 37 38 41 44 47 46 51 56 49 51 44 43 45 43 46 47 50 51 49 46 46 47 50 52 52 52 53 55 55 58 57 59 59 60 63 60 61 64 62 59
45 46 40 39 39 40 44 47 49 51 53 53 49 52 45 43 43 46 48 49 49 48 47 48 49 51 53 53 51 48 49 51 54 55 55 57 60 62 63 66 65 66 65 61
45 45 43 45 45 46 50 50 52 52 49 46 49 50 46 45 46 49 49 46 45 46 48 49 50 51 50 46 46 48 50 51 54 55 58 60 62 64 66 66 66 65 61 60
47 46 45 49 47 48 52 52 49 48 51 44 47 46 43 46 48 49 51 49 46 45 43 44 47 50 51 52 54 54 55 54 56 60 62 62 64 67 68 68 64 60 60 61
48 52 53 54 51 49 53 51 45 49 44 44 45 51 49 48 52 51 51 49 45 40 40 43 47 51 54 56 56 57 60 61 64 65 66 65 68 69 67 63 60 59 61 61
52 50 53 59 50 54 53 43 47 48 49 49 53 53 56 60 54 51 47 46 45 45 46 50 53 57 60 58 58 61 63 67 69 70 69 69 69 66 61 60 61 61 56 53
58 59 55 56 53 49 47 46 50 53 52 51 59 61 60 51 50 48 47 47 51 55 57 57 60 62 63 62 62 64 68 72 74 71 67 66 64 62 59 58 56 52 51 48
56 56 52 57 44 52 56 57 50 50 50 60 64 56 53 53 48 53 56 59 57 56 58 60 62 63 65 66 67 70 74 74 70 65 64 64 62 59 57 52 50 49 45 45
44 46 55 53 57 62 57 52 54 57 58 57 52 50 55 60 57 55 56 58 58 60 60 61 62 62 66 70 74 74 72 69 66 65 65 62 59 57 52 48 47 43 41 43
50 48 57 61 56 55 57 56 59 63 56 56 55 60 66 67 65 63 63 61 60 62 66 66 65 67 72 77 74 72 69 65 65 65 61 56 55 51 46 46 44 41 41 40
57 56 56 59 60 60 61 63 61 59 63 62 64 65 65 67 66 66 65 63 59 65 62 65 71 74 78 76 75 72 68 64 63 61 56 52 50 47 43 46 42 41 41 40
53 55 57 58 58 61 62 64 61 63 66 65 65 66 66 64 65 65 60 60 66 70 69 74 81 81 80 79 74 66 64 63 60 58 52 50 49 45 43 42 42 42 41 39
54 61 60 60 58 61 62 63 63 65 67 67 67 68 62 63 68 65 60 61 70 70 78 81 79 82 73 68 66 65 63 60 57 54 50 50 50 45 42 42 41 40 39 38
61 60 61 61 62 61 62 64 66 65 68 69 69 67 65 69 68 63 64 68 73 76 79 79 73 71 69 66 64 62 61 59 57 54 51 51 50 46 44 43 42 41 39 37
61 63 62 62 63 65 65 65 63 66 68 69 69 66 67 69 67 68 71 74 75 74 71 70 67 66 66 65 63 62 61 58 56 54 53 52 50 47 44 43 42 41 40 38
66 64 64 62 63 64 65 66 67 68 70 69 68 68 67 67 70 75 75 73 72 70 68 66 66 66 66 66 65 64 61 59 57 55 54 52 50 47 44 42 42 41 42 40
Wind_Direction
330 330 337 344 339 330 332 333 339 337 343 346 353 354 352 355 348 348 333 329 324 320 314 308 307 305 301 298 300 297 295 295 296 300 300 294 299 302 299 298 295 291 288 281
329 327 330 333 337 329 326 326 332 335 333 337 339 342 343 344 344 332 329 321 317 313 308 304 301 300 299 298 297 298 298 297 298 296 293 294 293 297 298 295 298 298 297 294
327 325 324 324 327 332 331 325 324 326 326 327 327 339 334 336 334 326 315 315 311 308 305 303 304 303 300 301 303 298 296 296 296 294 293 293 293 297 298 296 294 294 295 294
322 323 322 322 322 325 328 325 319 318 320 326 325 330 333 336 329 325 318 305 309 308 305 305 302 300 299 300 295 290 293 295 295 294 297 296 294 294 294 289 291 293 295 296
320 322 322 320 320 322 323 323 322 319 316 320 319 321 336 335 322 319 316 309 303 303 305 305 303 300 298 299 298 298 300 300 297 297 298 293 293 291 286 292 296 293 295 297
316 319 319 319 318 318 321 322 319 319 318 320 323 324 333 330 321 316 314 312 306 301 303 305 304 301 300 298 295 296 297 297 294 294 296 294 294 292 287 284 283 287 289 291
314 316 316 317 314 314 318 320 321 320 322 325 326 324 329 327 319 315 315 309 305 302 302 303 306 305 301 299 298 295 295 293 291 293 294 293 291 291 290 294 297 296 294 296
314 315 314 314 312 314 316 317 319 321 321 323 321 321 327 324 321 313 311 304 300 298 300 302 304 303 300 303 305 304 301 298 297 297 298 300 299 298 297 297 298 300 298 295
313 313 314 313 311 312 314 316 316 317 316 320 322 319 328 320 317 310 305 304 297 296 298 300 302 302 303 305 307 304 302 303 304 305 304 301 298 298 300 299 299 298 295 297
311 310 313 310 308 311 311 312 313 316 317 317 321 317 322 319 313 307 307 302 298 296 297 298 300 300 302 303 304 304 303 304 305 305 305 302 299 301 301 302 300 298 297 297
308 308 311 312 310 312 313 311 310 315 314 310 315 316 321 314 307 307 306 305 303 299 295 295 296 296 296 298 299 299 302 306 306 302 303 303 300 299 299 302 304 300 296 298
307 306 311 310 311 312 311 310 311 313 311 307 311 316 317 309 305 305 307 306 302 299 294 292 292 293 296 299 303 308 308 307 306 304 305 307 305 306 306 306 305 302 296 297
306 305 308 308 312 311 309 309 310 313 310 313 307 315 308 310 303 304 304 302 302 302 302 300 301 302 302 303 303 304 305 305 304 305 305 306 307 306 306 305 303 299 295 295
304 304 306 304 306 308 305 305 308 306 304 305 306 302 308 308 302 302 300 299 298 298 302 302 303 303 303 304 305 303 303 306 309 311 309 307 306 305 304 304 300 296 294 294
301 299 298 301 301 300 300 302 306 305 300 299 303 302 311 304 302 300 300 299 297 301 300 300 302 303 306 306 303 303 306 310 311 311 309 307 305 304 303 301 298 295 293 293
290 291 289 295 301 299 300 308 300 300 299 297 304 307 309 306 300 299 300 303 302 301 300 302 304 307 307 307 304 305 307 308 310 310 309 306 304 303 301 299 298 297 295 294
291 294 297 297 302 300 303 305 303 300 298 299 305 312 310 303 305 302 301 306 306 304 302 306 306 306 304 303 305 304 305 308 309 308 306 303 302 300 298 299 299 298 296 294
295 296 293 298 302 300 304 308 299 297 301 303 305 302 304 307 307 306 305 304 304 302 302 302 301 301 302 303 303 304 307 308 308 304 305 304 302 298 300 300 300 298 296 296
293 288 292 295 300 299 300 296 299 300 301 302 301 298 303 308 309 307 304 304 302 300 301 299 299 296 294 296 302 306 307 307 303 302 302 302 298 299 299 297 302 297 296 299
294 292 292 295 295 297 300 300 301 305 303 301 301 302 304 305 307 307 307 306 300 292 294 296 288 290 296 301 303 306 305 303 305 303 299 296 298 298 296 298 299 298 297 297
293 293 294 294 291 293 297 302 306 303 301 301 302 303 304 304 305 305 304 303 297 286 281 286 291 296 300 301 302 303 302 302 303 299 296 298 300 297 296 299 299 299 297 291
292 294 298 296 294 296 300 301 299 297 297 301 302 302 302 302 301 301 300 294 289 284 287 293 298 300 298 299 302 301 301 301 300 297 296 298 300 295 296 297 297 299 297 289
286 292 293 293 291 295 297 299 298 298 298 299 299 300 301 293 297 300 295 290 286 284 291 295 295 297 300 301 300 301 301 301 299 296 295 297 298 293 292 296 297 298 296 291
288 291 293 295 297 297 297 296 296 296 296 297 299 299 294 294 295 292 291 288 288 292 292 295 298 300 301 300 301 302 301 300 298 296 294 295 296 292 286 291 295 297 296 290
287 291 294 292 292 292 293 294 294 293 294 294 294 292 289 291 291 289 289 291 293 295 297 298 299 299 299 301 303 302 300 298 296 295 293 293 293 290 285 287 290 292 293 289
288 291 292 293 293 293 292 292 291 291 290 290 290 290 289 287 287 291 294 296 297 298 298 298 300 299 298 298 298 298 297 295 294 293 292 291 290 287 283 283 286 288 288 286